Theta_e
343 342 340 338 339 341 340 335 338 343 342 342 342 342 347 349 348 345 346 345 345 347 347 348 347 345 342 342 344 343 344 344 346 347 346 344 345 344 345 345 345 344 344
344 343 342 342 342 339 337 340 343 343 342 343 343 346 348 349 348 343 346 349 351 349 347 347 346 342 341 341 343 345 345 344 344 344 344 344 345 345 344 344 344 345 343
347 345 342 338 338 339 340 340 341 342 345 346 349 350 350 349 349 346 349 351 348 348 346 345 343 343 340 340 343 343 342 342 343 343 343 346 346 345 343 343 342 343 345
345 347 344 342 342 342 343 342 346 348 349 349 350 349 349 348 349 349 351 349 350 348 346 342 346 343 340 338 341 339 336 339 343 343 343 347 344 342 342 342 344 343 343
345 346 346 345 343 344 347 349 350 350 350 350 350 350 349 346 346 349 349 349 348 346 348 349 347 346 343 337 336 336 337 340 344 344 343 345 346 345 341 344 342 346 346
345 346 347 348 349 351 351 352 351 351 351 352 351 351 350 349 348 349 350 351 352 351 348 349 348 347 346 342 336 336 341 344 343 344 344 343 344 343 346 345 347 347 346
348 348 350 351 352 352 352 352 353 353 351 349 349 345 344 345 345 346 349 348 348 349 348 349 348 347 346 346 345 342 340 339 337 338 338 343 347 345 341 342 344 345 346
351 352 353 351 347 344 343 342 346 345 342 340 338 338 338 338 338 338 340 344 346 347 347 347 347 346 345 345 345 345 345 345 346 346 345 341 342 342 342 343 343 344 345
350 347 338 330 327 326 324 324 323 321 321 320 321 322 322 322 322 321 323 326 331 337 347 346 345 344 343 343 342 342 341 341 341 342 342 343 344 345 345 345 345 346 345
332 325 322 321 320 319 319 320 321 322 324 326 328 328 328 328 328 329 330 331 333 334 334 335 339 341 341 342 340 340 340 340 338 339 339 339 340 341 341 341 342 343 343
322 320 320 320 320 320 322 325 326 326 327 326 325 324 322 321 321 320 321 322 323 325 326 328 332 334 336 338 338 337 337 336 336 339 340 339 339 339 338 337 336 336 337
320 320 321 322 324 326 326 326 324 322 321 321 321 322 323 322 322 322 322 322 322 322 323 324 323 323 323 323 324 325 324 324 324 324 324 325 327 328 329 329 329 329 329
319 320 323 326 327 327 327 325 323 322 322 323 323 324 322 321 320 322 322 323 324 325 325 325 326 327 327 328 328 328 328 328 328 328 329 330 328 327 325 327 324 325 326
320 323 326 327 328 328 327 325 324 324 324 324 323 322 321 318 316 319 322 324 325 326 326 327 327 326 326 326 326 325 325 325 325 325 325 324 324 324 324 324 325 327 327
323 326 329 329 328 328 327 325 324 325 323 320 314 312 316 309 308 308 310 314 318 321 322 323 323 322 319 317 316 317 320 321 322 321 321 321 321 322 322 322 321 321 321
324 328 329 328 328 328 327 324 325 323 321 317 310 310 310 310 309 309 308 307 306 307 308 308 307 310 309 308 307 308 306 306 306 305 305 305 305 306 306 307 310 312 314
324 325 325 323 324 327 326 325 324 320 318 313 311 311 311 311 311 310 310 309 308 308 311 311 311 311 310 309 308 308 308 307 306 306 306 305 306 308 308 305 306 312 313
323 320 316 316 320 325 325 325 322 321 318 314 312 312 312 312 312 312 312 312 314 313 313 313 313 312 311 312 311 311 310 309 309 307 306 306 305 307 309 310 310 309 312
319 315 318 321 324 324 324 324 323 320 316 314 313 313 313 313 313 313 313 313 314 314 314 314 314 314 314 314 313 312 310 310 309 307 307 306 305 305 304 305 309 308 308
315 318 321 323 324 324 323 324 323 316 315 315 316 315 314 313 315 316 314 312 314 314 314 314 314 313 312 312 312 312 313 311 309 307 306 305 305 305 306 306 308 308 310
315 321 322 322 323 323 321 323 318 316 316 315 314 313 313 313 314 314 313 313 312 313 315 314 313 313 313 312 313 313 312 310 308 308 307 305 305 305 305 305 307 308 310
316 321 321 321 321 320 319 317 316 316 315 314 313 310 311 313 313 312 312 312 311 310 311 312 313 313 313 313 313 312 312 309 307 307 306 305 304 304 304 304 304 305 308
316 318 320 320 314 313 313 314 315 315 315 314 313 312 311 310 310 311 310 309 308 308 308 307 307 307 311 311 311 310 310 309 307 306 305 304 304 303 302 302 304 304 307
313 316 317 315 314 314 314 314 315 315 315 314 312 310 310 310 311 310 309 308 307 307 306 305 304 304 305 308 307 308 309 308 306 305 304 304 304 303 301 302 304 305 305
315 316 316 314 314 316 315 316 316 315 315 314 313 311 311 311 312 312 311 310 308 306 304 302 301 301 302 305 306 309 308 306 304 303 304 304 303 301 301 303 304 305 306
316 315 317 316 314 315 315 316 317 317 315 314 313 312 312 312 312 312 311 311 308 305 302 302 302 302 306 308 308 307 305 303 304 304 303 302 300 301 303 304 305 305 306
Wind_Speed
25 28 30 29 25 21 22 18 15 14 17 18 17 16 16 17 14 13 13 14 18 15 15 15 13 12 15 15 15 16 17 19 19 17 19 18 15 12 10 10 13 17 16
18 20 20 18 20 17 14 12 10 15 18 17 15 16 15 14 15 14 15 14 13 14 15 18 18 18 17 16 16 14 16 18 20 25 21 21 20 17 15 16 15 14 18
18 16 16 15 14 12 13 15 18 18 16 14 14 13 14 14 15 16 15 13 15 16 17 17 18 19 15 17 17 15 14 14 20 21 24 20 23 22 19 18 18 19 21
19 19 16 15 15 16 18 19 16 12 12 13 13 11 14 15 17 18 17 14 14 13 20 19 19 20 22 22 18 15 12 18 18 21 24 21 22 22 23 23 22 22 21
17 17 16 15 15 16 14 12 12 11 12 11 15 18 15 12 12 13 14 13 14 14 17 17 21 26 23 19 20 19 20 16 16 17 21 21 19 17 20 18 21 20 23
16 14 13 13 11 11 9 7 7 7 6 6 8 10 10 11 12 10 10 10 13 15 13 11 13 19 23 20 18 19 16 13 12 15 14 21 22 21 17 18 17 17 18
17 15 12 10 8 6 6 5 5 5 5 7 10 9 8 8 9 8 8 9 11 13 12 9 10 12 17 21 20 18 15 15 14 16 21 22 19 17 18 20 22 21 19
13 10 9 8 6 6 5 4 6 7 6 7 8 8 8 8 8 8 8 8 10 10 10 9 8 8 10 9 7 8 10 13 15 18 21 22 24 24 26 28 29 28 27
9 10 9 7 6 5 4 4 5 5 5 5 4 4 4 5 5 6 7 8 9 8 7 8 9 10 9 8 8 8 7 7 8 9 10 11 13 17 19 19 21 22 25
10 9 7 7 6 5 3 3 3 4 5 5 3 2 3 3 3 3 3 2 2 3 5 7 9 10 12 11 10 11 10 10 10 10 11 12 13 14 15 15 16 19 22
9 7 7 7 7 8 9 9 7 5 4 3 3 4 5 6 7 6 4 3 3 4 4 5 5 6 8 10 11 12 13 14 14 15 15 16 16 16 16 16 18 20 22
9 8 8 8 11 13 10 9 9 9 10 12 11 11 11 11 11 10 9 9 9 8 9 9 7 6 5 6 8 10 11 11 10 12 13 14 15 15 16 19 22 25 25
9 9 10 12 13 12 10 10 11 12 11 12 10 9 9 9 8 7 7 8 8 9 9 10 10 10 9 8 7 6 6 7 8 9 8 8 9 11 13 15 17 19 21
11 12 13 12 13 12 11 11 11 11 11 9 7 6 7 7 8 8 8 7 6 6 6 5 5 6 7 7 7 8 8 8 10 10 10 12 15 16 16 15 15 15 17
13 15 15 15 15 14 12 13 11 10 10 9 9 9 9 11 12 11 11 9 7 6 6 5 5 6 7 8 9 9 9 8 10 11 13 15 17 18 20 22 22 24 21
18 18 18 17 16 14 13 14 12 10 9 9 11 13 14 15 15 15 15 14 12 11 8 9 9 10 11 12 13 13 14 14 14 15 16 17 18 20 20 22 22 22 22
18 18 17 15 16 17 15 14 17 14 9 10 11 12 13 14 15 15 15 14 13 11 11 10 10 10 10 11 12 12 13 14 15 16 17 18 18 18 20 20 21 21 20
17 14 14 15 19 19 17 16 14 11 9 8 9 10 10 12 13 13 13 12 10 11 9 9 9 10 10 10 10 11 13 15 16 18 18 19 19 18 17 18 19 20 19
17 15 17 20 22 21 19 16 12 10 7 6 6 6 7 6 7 8 9 8 8 8 8 8 9 9 10 11 12 13 16 17 20 20 19 19 20 20 22 21 18 21 22
16 17 20 21 22 18 15 12 11 8 6 3 1 0 3 5 4 4 8 11 9 8 8 9 9 10 12 13 13 13 12 14 15 17 18 20 19 19 19 21 20 23 21
21 22 20 19 19 15 13 13 11 8 5 3 1 2 4 5 4 6 9 10 10 10 11 12 13 13 15 15 14 13 13 14 15 21 23 22 23 21 20 20 19 20 22
24 25 21 19 17 16 15 13 12 8 6 4 3 3 4 4 6 8 8 8 10 12 13 15 16 15 17 16 15 15 14 15 17 23 26 25 23 21 20 21 21 22 22
24 24 22 20 18 17 16 14 10 6 4 3 4 3 4 5 6 6 8 10 13 15 17 19 20 21 17 18 18 18 18 19 22 23 26 26 26 24 26 23 22 22 22
24 25 24 22 20 17 14 11 8 6 4 2 3 5 6 8 7 10 13 16 18 20 22 22 20 19 20 20 20 19 19 21 22 25 26 26 28 29 28 25 22 22 24
25 24 22 20 19 17 15 11 8 5 4 2 4 6 7 8 10 13 17 21 23 25 24 21 19 17 15 15 16 15 18 21 25 24 25 28 29 29 25 22 22 23 23
24 23 20 19 19 16 12 9 6 4 3 2 2 6 7 9 11 14 18 22 25 27 24 21 18 15 12 12 15 18 21 21 20 24 26 27 27 25 22 25 26 24 23
Wind_Direction
238 245 252 256 260 263 266 264 274 276 275 277 279 279 288 290 283 273 274 278 285 278 274 266 254 252 253 255 254 253 253 248 248 258 262 267 265 260 257 237 231 235 232
226 234 237 240 247 246 244 251 260 276 281 274 275 276 276 285 275 272 276 279 287 279 274 255 253 256 255 254 256 254 251 249 255 256 258 263 262 264 266 257 252 239 232
216 220 225 222 225 237 251 261 267 270 271 269 271 275 282 284 275 266 264 269 271 272 272 258 253 256 261 270 254 249 251 252 249 250 257 261 260 258 254 255 259 258 253
212 216 220 225 237 244 252 258 256 250 249 264 278 287 290 288 277 265 264 271 271 269 276 272 249 251 261 293 252 242 277 266 251 248 247 252 260 259 252 254 257 258 258
193 206 217 227 235 235 231 238 244 247 256 268 280 287 283 286 287 276 266 268 267 270 270 273 254 250 254 280 259 255 289 258 242 249 247 255 258 256 257 260 262 258 261
176 185 196 202 206 224 232 245 264 269 271 280 286 287 279 275 279 280 274 273 273 276 278 269 256 253 257 269 258 258 271 243 248 251 252 257 261 264 263 261 259 257 265
170 176 181 187 197 218 240 255 267 264 269 290 294 299 299 291 284 276 259 274 278 283 282 274 259 249 258 266 264 258 245 245 262 265 262 252 253 258 268 268 265 260 263
160 170 184 200 218 227 232 250 255 264 274 278 281 284 288 290 287 283 279 270 268 272 277 280 285 288 288 300 284 267 265 265 272 271 265 267 263 265 270 276 269 265 269
185 190 194 202 206 216 235 249 256 266 269 265 269 288 302 306 306 299 284 276 274 266 260 265 268 269 280 289 296 296 290 280 276 279 282 282 281 272 268 269 268 270 272
188 190 188 191 195 189 184 191 152 124 120 114 95 64 39 18 6 351 332 338 340 300 280 273 257 259 267 270 275 279 281 276 273 270 273 279 282 286 282 279 279 275 279
184 180 174 162 147 129 131 127 116 111 107 100 75 64 59 55 49 41 26 356 330 325 323 321 314 300 290 291 285 289 287 287 287 285 283 282 280 278 283 285 285 281 279
167 164 150 134 125 118 115 109 101 95 99 95 90 84 74 65 58 54 53 48 48 49 48 41 34 14 344 317 304 305 310 316 311 303 301 300 293 289 286 283 282 282 280
165 156 146 139 131 123 118 107 106 102 97 94 88 77 60 45 40 48 55 57 60 53 47 39 29 19 16 11 12 4 351 345 338 336 349 338 331 320 310 310 299 297 292
164 158 153 152 150 141 130 117 114 106 100 92 75 58 49 49 58 62 66 70 68 58 44 24 1 345 339 335 327 327 330 328 326 322 313 309 310 311 312 313 320 317 314
165 166 165 165 164 155 145 131 123 112 103 85 65 71 74 70 65 65 65 64 59 47 29 13 17 17 9 7 3 355 354 348 342 336 330 324 318 313 310 309 308 306 306
172 173 174 170 164 162 155 145 133 121 99 70 77 79 77 70 63 58 55 52 50 51 55 56 51 50 46 40 32 24 16 9 2 356 349 342 334 329 322 319 319 315 312
176 176 177 176 171 165 159 160 150 132 105 80 80 78 74 67 60 54 49 45 42 43 52 53 52 50 42 33 24 17 11 4 359 354 350 348 343 337 334 329 322 321 320
173 173 171 169 164 159 156 154 147 135 112 95 88 77 69 61 53 46 42 39 35 37 42 43 37 32 23 13 5 1 359 357 354 350 346 344 343 339 332 327 325 320 316
168 164 155 149 149 152 153 153 149 139 116 104 86 67 55 47 36 28 23 19 17 15 12 12 11 5 357 351 346 344 343 344 344 345 343 341 340 338 335 332 322 319 314
160 160 154 152 153 155 156 161 158 143 121 121 118 339 352 358 342 338 354 355 342 327 327 335 336 338 340 340 334 331 327 327 336 344 341 339 337 335 331 329 325 323 321
160 159 159 155 154 158 157 155 153 145 133 103 29 310 306 304 313 331 337 338 339 331 311 304 307 313 320 325 322 316 312 317 324 338 341 336 334 331 327 324 315 320 322
163 161 157 153 153 156 154 152 148 141 126 78 34 358 331 332 332 338 347 352 343 331 322 315 305 302 304 305 304 304 302 311 321 328 331 330 328 326 324 320 316 316 317
163 161 156 152 151 151 151 151 149 143 133 69 38 28 13 359 357 360 359 353 343 337 330 321 311 304 300 300 303 304 302 305 312 320 324 325 326 326 325 321 315 312 313
161 158 155 157 156 154 153 157 162 165 157 101 48 46 43 37 25 16 8 355 346 337 332 325 317 308 300 301 303 302 303 308 314 318 319 321 324 326 324 320 314 311 310
161 157 159 162 161 160 161 162 170 183 198 211 24 26 26 17 7 360 355 351 345 338 334 331 326 320 312 301 300 302 306 310 313 314 318 321 323 324 322 316 315 315 310
166 164 164 165 167 169 171 172 175 194 211 259 319 6 5 356 343 341 341 341 340 337 334 331 327 322 319 314 309 308 308 310 312 316 319 322 324 325 321 321 321 315 310